Change the Weather History Date:

Saturday, April 5, 2014

  Actual Average (KAMN) Record (KAMN)
Temperature  
Mean Temperature 36 °F -  
Max Temperature 45 °F 49 °F 73 °F (2005)
Min Temperature 28 °F 30 °F 15 °F (1975)
Degree Days  
Heating Degree Days 28    
Moisture  
Dew Point 22 °F    
Average Humidity 61    
Maximum Humidity 80    
Minimum Humidity 32    
Precipitation  
Precipitation 0.00 in - - ()
Sea Level Pressure  
Sea Level Pressure 30.03 in    
Wind  
Wind Speed 12 mph (West)    
Max Wind Speed 18 mph    
Max Gust Speed 28 mph    
Visibility 10 miles    
Events Snow    
Averages and records for this station are not official NWS values.
T = Trace of Precipitation, MM = Missing Value Source: NWS Daily Summary

Daily Weather History Graph

Daily Weather History Graph

Search for Another Location

Airport or City:

Trip Planner

Search our weather history database for the weather conditions in past years. The results will help you decide how hot, cold, wet, or windy it might be!

Date:

Astronomy

Apr. 05, 2014 Rise Set
Actual Time 7:13 AM EDT 8:10 PM EDT
Civil Twilight 6:44 AM EDT 8:39 PM EDT
Nautical Twilight 6:09 AM EDT 9:14 PM EDT
Astronomical Twilight 5:33 AM EDT 9:51 PM EDT
Moon 11:13 AM EDT (4/5) 1:26 AM EDT (4/5)
Length of Visible Light 13h 55m
Length of Day
12h 57m
Waxing Crescent, 34% of the Moon is Illuminated
Apr 5
Waxing Crescent
Apr 7
First Quarter
Apr 15
Full
Apr 22
Last Quarter
Apr 29
New

Hourly Weather History & Observations

Time (EDT) Temp. Windchill Dew Point Humidity Pressure Visibility Wind Dir Wind Speed Gust Speed Precip Events Conditions
12:15 AM 32.2 °F 21.1 °F 26.8 °F 80% 29.70 in 10.0 mi West 17.3 mph 24.2 mph N/A   Overcast
12:35 AM 32.0 °F 21.6 °F 25.7 °F 78% 29.72 in 10.0 mi West 15.0 mph 27.6 mph N/A   Overcast
12:55 AM 31.8 °F 21.0 °F 25.0 °F 76% 29.73 in 10.0 mi West 16.1 mph 26.5 mph N/A   Overcast
1:15 AM 30.9 °F 19.1 °F 23.9 °F 75% 29.74 in 10.0 mi West 18.4 mph 26.5 mph N/A   Overcast
1:34 AM 30.4 °F 20.0 °F 23.7 °F 76% 29.76 in 10.0 mi West 13.8 mph 25.3 mph N/A   Mostly Cloudy
1:55 AM 30.6 °F 21.8 °F 24.8 °F 79% 29.77 in 10.0 mi West 10.4 mph - N/A Snow Light Snow
2:15 AM 30.0 °F 19.5 °F 23.9 °F 78% 29.78 in 10.0 mi WNW 13.8 mph 24.2 mph N/A   Overcast
2:34 AM 29.7 °F 18.2 °F 22.5 °F 75% 29.80 in 10.0 mi West 16.1 mph 20.7 mph N/A   Overcast
2:55 AM 29.1 °F 17.1 °F 21.2 °F 72% 29.81 in 10.0 mi West 17.3 mph 27.6 mph N/A   Overcast
3:15 AM 28.8 °F 16.6 °F 21.4 °F 74% 29.83 in 10.0 mi West 17.3 mph 26.5 mph N/A   Mostly Cloudy
3:34 AM 29.1 °F 17.5 °F 21.7 °F 74% 29.84 in 10.0 mi West 16.1 mph 26.5 mph N/A   Overcast
3:55 AM 29.1 °F 20.0 °F 21.9 °F 74% 29.86 in 10.0 mi West 10.4 mph 21.9 mph N/A   Overcast
4:15 AM 29.3 °F 20.2 °F 22.8 °F 77% 29.87 in 10.0 mi West 10.4 mph 19.6 mph N/A   Overcast
4:35 AM 29.3 °F 19.6 °F 22.6 °F 76% 29.88 in 10.0 mi WNW 11.5 mph 24.2 mph N/A   Overcast
4:55 AM 29.5 °F 18.0 °F 22.1 °F 74% 29.89 in 10.0 mi West 16.1 mph 25.3 mph N/A   Overcast
5:15 AM 29.7 °F 20.7 °F 23.0 °F 76% 29.90 in 10.0 mi West 10.4 mph 25.3 mph N/A   Overcast
5:35 AM 29.5 °F 18.4 °F 23.7 °F 79% 29.92 in 10.0 mi West 15.0 mph 23.0 mph N/A   Overcast
5:55 AM 29.3 °F 19.1 °F 23.0 °F 77% 29.93 in 10.0 mi WNW 12.7 mph 25.3 mph N/A   Overcast
6:15 AM 29.3 °F 18.2 °F 22.6 °F 76% 29.94 in 10.0 mi West 15.0 mph 23.0 mph N/A   Overcast
6:35 AM 29.3 °F 18.6 °F 21.2 °F 72% 29.96 in 10.0 mi WNW 13.8 mph 21.9 mph N/A   Overcast
6:55 AM 29.3 °F 19.6 °F 21.6 °F 73% 29.97 in 10.0 mi WNW 11.5 mph 19.6 mph N/A   Overcast
7:15 AM 29.3 °F 19.6 °F 21.7 °F 73% 29.98 in 10.0 mi WNW 11.5 mph 18.4 mph N/A   Overcast
7:35 AM 29.7 °F 19.6 °F 22.1 °F 73% 29.99 in 10.0 mi WNW 12.7 mph 23.0 mph N/A   Overcast
7:55 AM 29.8 °F 19.8 °F 22.5 °F 74% 30.01 in 10.0 mi West 12.7 mph 17.3 mph N/A   Overcast
8:15 AM 30.6 °F 21.8 °F 23.0 °F 74% 30.02 in 10.0 mi WNW 10.4 mph 18.4 mph N/A   Mostly Cloudy
8:35 AM 30.7 °F 20.9 °F 22.1 °F 70% 30.03 in 10.0 mi NW 12.7 mph 19.6 mph N/A   Mostly Cloudy
8:55 AM 31.1 °F 21.9 °F 22.8 °F 71% 30.03 in 10.0 mi West 11.5 mph 18.4 mph N/A   Mostly Cloudy
9:15 AM 31.1 °F 20.5 °F 23.0 °F 72% 30.04 in 10.0 mi WNW 15.0 mph 19.6 mph N/A   Overcast
9:35 AM 31.6 °F 23.7 °F 23.7 °F 73% 30.05 in 10.0 mi WNW 9.2 mph 16.1 mph N/A   Overcast
9:55 AM 32.0 °F 23.6 °F 24.3 °F 73% 30.06 in 10.0 mi WNW 10.4 mph 19.6 mph N/A   Overcast
10:14 AM 32.0 °F 22.5 °F 23.5 °F 71% 30.07 in 10.0 mi West 12.7 mph 17.3 mph N/A   Overcast
10:35 AM 32.9 °F 24.1 °F 23.2 °F 67% 30.08 in 10.0 mi WNW 11.5 mph 19.6 mph N/A   Mostly Cloudy
10:55 AM 33.6 °F 25.6 °F 23.2 °F 66% 30.08 in 10.0 mi WNW 10.4 mph 18.4 mph N/A   Mostly Cloudy
11:14 AM 34.3 °F 26.5 °F 23.5 °F 65% 30.09 in 10.0 mi WNW 10.4 mph 17.3 mph N/A   Scattered Clouds
11:35 AM 35.2 °F 25.8 °F 24.3 °F 64% 30.09 in 10.0 mi West 15.0 mph 20.7 mph N/A   Scattered Clouds
11:55 AM 35.8 °F 27.8 °F 24.3 °F 63% 30.10 in 10.0 mi West 11.5 mph 17.3 mph N/A   Mostly Cloudy
12:15 PM 36.7 °F 30.5 °F 24.1 °F 60% 30.11 in 10.0 mi West 8.1 mph 12.7 mph N/A   Scattered Clouds
12:35 PM 37.4 °F 30.8 °F 24.6 °F 60% 30.11 in 10.0 mi West 9.2 mph 20.7 mph N/A   Scattered Clouds
12:55 PM 38.3 °F 30.5 °F 24.6 °F 58% 30.11 in 10.0 mi West 12.7 mph 17.3 mph N/A   Scattered Clouds
1:15 PM 38.8 °F 30.8 °F 24.1 °F 55% 30.11 in 10.0 mi West 13.8 mph 18.4 mph N/A   Clear
1:35 PM 40.1 °F 33.2 °F 24.1 °F 53% 30.12 in 10.0 mi West 11.5 mph 17.3 mph N/A   Clear
1:55 PM 41.4 °F 35.2 °F 23.7 °F 50% 30.11 in 10.0 mi WSW 10.4 mph - N/A   Clear
2:15 PM 41.4 °F 35.2 °F 23.7 °F 50% 30.11 in 10.0 mi West 10.4 mph 18.4 mph N/A   Clear
2:35 PM 42.1 °F 37.1 °F 22.5 °F 46% 30.12 in 10.0 mi West 8.1 mph - N/A   Clear
2:54 PM 43.0 °F 36.0 °F 23.5 °F 46% 30.12 in 10.0 mi WSW 13.8 mph 20.7 mph N/A   Clear
3:15 PM 43.7 °F 37.7 °F 21.4 °F 41% 30.12 in 10.0 mi West 11.5 mph 18.4 mph N/A   Clear
3:35 PM 44.4 °F 39.5 °F 21.2 °F 40% 30.11 in 10.0 mi West 9.2 mph 16.1 mph N/A   Clear
3:54 PM 44.6 °F 39.2 °F 21.2 °F 39% 30.11 in 10.0 mi WNW 10.4 mph 18.4 mph N/A   Clear
4:15 PM 45.1 °F 40.3 °F 18.9 °F 35% 30.11 in 10.0 mi WNW 9.2 mph 19.6 mph N/A   Clear
4:35 PM 44.4 °F 40.5 °F 18.0 °F 35% 30.11 in 10.0 mi NW 6.9 mph - N/A   Clear
4:55 PM 45.5 °F 40.8 °F 18.9 °F 35% 30.11 in 10.0 mi West 9.2 mph - N/A   Clear
5:15 PM 45.0 °F 40.1 °F 16.9 °F 32% 30.11 in 10.0 mi WNW 9.2 mph 18.4 mph N/A   Clear
5:35 PM 45.3 °F 40.6 °F 19.4 °F 36% 30.12 in 10.0 mi SW 9.2 mph - N/A   Clear
5:55 PM 45.0 °F 40.6 °F 18.0 °F 34% 30.12 in 10.0 mi West 8.1 mph - N/A   Clear
6:15 PM 44.8 °F 39.9 °F 17.8 °F 34% 30.12 in 10.0 mi West 9.2 mph - N/A   Clear
6:35 PM 44.4 °F 39.5 °F 16.7 °F 33% 30.13 in 10.0 mi West 9.2 mph - N/A   Clear
6:55 PM 43.9 °F 37.9 °F 16.0 °F 33% 30.13 in 10.0 mi West 11.5 mph - N/A   Clear
7:15 PM 43.3 °F 38.1 °F 16.0 °F 33% 30.13 in 10.0 mi West 9.2 mph - N/A   Clear
7:35 PM 42.1 °F 38.4 °F 15.8 °F 35% 30.13 in 10.0 mi WNW 5.8 mph - N/A   Clear
7:55 PM 41.0 °F 38.0 °F 16.3 °F 37% 30.13 in 10.0 mi West 4.6 mph - N/A   Clear
8:15 PM 39.7 °F 37.6 °F 18.3 °F 42% 30.13 in 10.0 mi West 3.5 mph - N/A   Clear
8:35 PM 37.9 °F 35.5 °F 21.0 °F 51% 30.14 in 10.0 mi WSW 3.5 mph - N/A   Clear
8:55 PM 37.6 °F 35.1 °F 20.5 °F 50% 30.14 in 10.0 mi West 3.5 mph - N/A   Clear
9:15 PM 36.1 °F - 22.3 °F 57% 30.15 in 10.0 mi Calm Calm - N/A   Clear
9:34 PM 33.3 °F - 23.2 °F 67% 30.15 in 10.0 mi Calm Calm - N/A   Clear
9:55 PM 32.9 °F - 21.2 °F 62% 30.15 in 10.0 mi Calm Calm - N/A   Clear
10:15 PM 32.9 °F - 21.0 °F 62% 30.15 in 10.0 mi Calm Calm - N/A   Clear
10:34 PM 32.0 °F - 21.7 °F 66% 30.15 in 10.0 mi Calm Calm - N/A   Clear
10:55 PM 31.5 °F 28.1 °F 21.7 °F 67% 30.15 in 10.0 mi SSW 3.5 mph - N/A   Clear
11:15 PM 30.9 °F - 21.0 °F 67% 30.15 in 10.0 mi Calm Calm - N/A   Clear
11:35 PM 30.7 °F - 19.9 °F 64% 30.15 in 10.0 mi Calm Calm - N/A   Clear
11:55 PM 29.8 °F - 21.6 °F 71% 30.14 in 10.0 mi Calm Calm - N/A   Clear